Flag for Germany Weather past 2 weeks in Coburg, Bavaria, Germany

Now
67 °F

Passing clouds.


Feels Like: 67 °F
Forecast: 44 / 68 °F
Wind: 5 mph from North

Location: Bamberg

Current Time: Oct 1, 2014 at 7:04:24 PM

Latest Report: Oct 1, 2014 at 6:00 PM


Visibility: 13 mi

Pressure: 30.29 "Hg

Humidity: 70%

Dew point: 57 °F

Location of CoburgLocation

Historic Weather in Coburg — Graph

°F

Coburg temperature yesterday

Maximum temperature yesterday: 68 °F (at 1:00 PM)
Minimum temperature yesterday: 56 °F (at 12:00 AM)
Average temperature yesterday: 61 °F

Past Weeks' High & Low Weather Summary

 TemperatureHumidityPressure
High76 °F (Sep 29, 3:00 PM)100% (Sep 17, 12:00 AM)30.40 "Hg (Sep 17, 12:00 AM)
Low37 °F (Sep 24, 2:00 AM)54% (Sep 18, 3:00 PM)29.87 "Hg (Sep 18, 5:00 PM)
Average57 °F90%30.11 "Hg
* Reported Sep 16 6:00 PM — Oct 1 6:00 PM, Coburg, Weather by CustomWeather, © 2014

Note: Actual official high and low records may vary slightly from our data, if they occured in-between our weather recording intervals... More about our weather records

Advertising

Coburg weather history for previous 24 hours

 ConditionsComfort  
Time TempWeatherWind HumidityBarometerVisibility
6:00 PM
Oct 1
67 °FPassing clouds.5 mph70%30.29 "Hg12 mi
5:00 PM66 °FPartly sunny.1 mph79%30.28 "Hg13 mi
4:00 PM68 °FPartly sunny.3 mph68%30.27 "Hg15 mi
3:00 PM71 °FPassing clouds.2 mph63%30.27 "Hg15 mi
2:00 PM70 °FScattered clouds.1 mph64%30.29 "Hg16 mi
1:00 PM66 °FOvercast.1 mph80%30.32 "Hg11 mi
12:00 PM63 °FOvercast.1 mph86%30.32 "Hg6 mi
11:00 AM60 °FFog.1 mph97%30.32 "Hg4 mi
10:00 AM58 °FLow clouds.1 mph100%30.32 "Hg2 mi
9:00 AM57 °FLow clouds.2 mph100%30.31 "Hg2 mi
8:00 AM57 °FLow clouds.1 mph100%30.31 "Hg1 mi
7:00 AM57 °FLow clouds.No wind100%30.30 "Hg0 mi
6:00 AM56 °FLow clouds.1 mph100%30.30 "Hg0 mi
5:00 AM56 °FLow clouds.1 mph100%30.30 "Hg0 mi
4:00 AM56 °FLow clouds.No wind100%30.31 "Hg1 mi
3:00 AM56 °FLow clouds.1 mph100%30.31 "Hg0 mi
2:00 AM55 °FLow clouds.1 mph100%30.31 "Hg0 mi
1:00 AM54 °FOvercast.1 mph100%30.30 "Hg1 mi
12:00 AM55 °FOvercast.1 mph100%30.31 "Hg1 mi
11:00 PM
Sep 30
57 °FOvercast.1 mph100%30.30 "Hg1 mi
10:00 PM60 °FOvercast.1 mph100%30.29 "Hg4 mi
9:00 PM61 °FOvercast.1 mph99%30.28 "Hg6 mi
8:00 PM62 °FOvercast.1 mph96%30.28 "Hg7 mi
7:00 PM64 °FOvercast.1 mph93%30.27 "Hg10 mi
Weather by CustomWeather, © 2014

See weather overviewHow to use our weather pages